| time (UTC) | temp C | wind direction | speed KPH | gust KPH | rain 1hr cm | rain 24hr cm | rain mn cm | humidity % | barometer mb |
| 20260504202213 | 24 | 226 | 9.7 | 22.5 | 0.00 | 0.00 | 0.00 | 36 | 956.8 |
| 20260504201714 | 23 | 244 | 9.7 | 22.5 | 0.00 | 0.00 | 0.00 | 35 | 956.9 |
| 20260504201213 | 23 | 202 | 8.0 | 17.7 | 0.00 | 0.00 | 0.00 | 37 | 957.0 |
| 20260504201203 | 23 | 226 | 8.0 | 22.5 | 0.00 | 0.00 | 0.00 | 34 | 957.1 |
| 20260504200213 | 23 | 205 | 8.0 | 22.5 | 0.00 | 0.00 | 0.00 | 37 | 957.2 |
| 20260504195712 | 23 | 176 | 8.0 | 19.3 | 0.00 | 0.00 | 0.00 | 35 | 957.3 |
| 20260504195214 | 23 | 197 | 9.7 | 22.5 | 0.00 | 0.00 | 0.00 | 38 | 957.2 |
| 20260504194711 | 23 | 243 | 9.7 | 22.5 | 0.00 | 0.00 | 0.00 | 37 | 957.3 |
| 20260504194209 | 23 | 156 | 8.0 | 22.5 | 0.00 | 0.00 | 0.00 | 37 | 957.5 |
| 20260504193708 | 23 | 260 | 8.0 | 24.1 | 0.00 | 0.00 | 0.00 | 37 | 957.5 |
| 20260504193207 | 23 | 243 | 8.0 | 24.1 | 0.00 | 0.00 | 0.00 | 35 | 957.6 |
| 20260504192711 | 23 | 186 | 8.0 | 19.3 | 0.00 | 0.00 | 0.00 | 37 | 957.8 |
| 20260504192208 | 23 | 210 | 8.0 | 19.3 | 0.00 | 0.00 | 0.00 | 37 | 957.8 |
| 20260504191936 | 23 | 210 | 8.0 | 17.7 | 0.00 | 0.00 | 0.00 | 37 | 957.8 |
| 20260504191209 | 23 | 260 | 11.3 | 27.4 | 0.00 | 0.00 | 0.00 | 36 | 957.8 |
| 20260504190709 | 23 | 233 | 9.7 | 27.4 | 0.00 | 0.00 | 0.00 | 37 | 958.0 |
| 20260504190209 | 23 | 210 | 8.0 | 17.7 | 0.00 | 0.00 | 0.00 | 38 | 958.1 |
| 20260504185710 | 23 | 168 | 8.0 | 17.7 | 0.00 | 0.00 | 0.00 | 39 | 958.2 |
| 20260504185209 | 23 | 233 | 8.0 | 17.7 | 0.00 | 0.00 | 0.00 | 38 | 958.3 |
| 20260504184707 | 22 | 162 | 9.7 | 19.3 | 0.00 | 0.00 | 0.00 | 37 | 958.4 |
| 20260504184210 | 22 | 240 | 11.3 | 27.4 | 0.00 | 0.00 | 0.00 | 39 | 958.5 |
| 20260504183708 | 22 | 286 | 9.7 | 27.4 | 0.00 | 0.00 | 0.00 | 38 | 958.7 |
| 20260504183433 | 22 | 210 | 8.0 | 19.3 | 0.00 | 0.00 | 0.00 | 37 | 958.7 |
| 20260504182708 | 22 | 221 | 8.0 | 19.3 | 0.00 | 0.00 | 0.00 | 39 | 958.6 |
| 20260504182207 | 22 | 219 | 9.7 | 20.9 | 0.00 | 0.00 | 0.00 | 39 | 958.8 |
| 20260504181707 | 22 | 239 | 9.7 | 19.3 | 0.00 | 0.00 | 0.00 | 39 | 958.9 |
| 20260504181203 | 22 | 129 | 9.7 | 22.5 | 0.00 | 0.00 | 0.00 | 39 | 958.8 |
| 20260504180656 | 22 | 234 | 9.7 | 22.5 | 0.00 | 0.00 | 0.00 | 41 | 958.9 |
| 20260504180413 | 22 | 248 | 8.0 | 22.5 | 0.00 | 0.00 | 0.00 | 39 | 959.2 |
| 20260504175644 | 22 | 207 | 8.0 | 17.7 | 0.00 | 0.00 | 0.00 | 38 | 959.2 |
| 20260504175400 | 22 | 166 | 8.0 | 17.7 | 0.00 | 0.00 | 0.00 | 42 | 959.2 |
| 20260504174635 | 22 | 218 | 8.0 | 17.7 | 0.00 | 0.00 | 0.00 | 40 | 959.4 |
| 20260504174127 | 22 | 246 | 9.7 | 27.4 | 0.00 | 0.00 | 0.00 | 40 | 959.4 |
| 20260504173621 | 22 | 167 | 9.7 | 27.4 | 0.00 | 0.00 | 0.00 | 39 | 959.5 |
| 20260504173121 | 22 | 219 | 6.4 | 17.7 | 0.00 | 0.00 | 0.00 | 39 | 959.4 |
| 20260504172622 | 22 | 255 | 6.4 | 17.7 | 0.00 | 0.00 | 0.00 | 40 | 959.5 |
| 20260504172124 | 21 | 198 | 8.0 | 16.1 | 0.00 | 0.00 | 0.00 | 40 | 959.5 |
| 20260504171621 | 21 | 241 | 6.4 | 14.5 | 0.00 | 0.00 | 0.00 | 40 | 959.6 |
| 20260504171121 | 21 | 224 | 8.0 | 24.1 | 0.00 | 0.00 | 0.00 | 40 | 959.7 |
| 20260504170620 | 21 | 266 | 9.7 | 24.1 | 0.00 | 0.00 | 0.00 | 39 | 959.8 |
| 20260504170119 | 21 | 223 | 9.7 | 22.5 | 0.00 | 0.00 | 0.00 | 41 | 959.8 |
| 20260504150953 | 18 | 222 | 8.0 | 19.3 | 0.00 | 0.00 | 0.00 | 43 | 961.4 |
| 20260504150449 | 19 | 262 | 6.4 | 19.3 | 0.00 | 0.00 | 0.00 | 41 | 961.5 |
| 20260504150422 | 19 | 223 | 4.8 | 17.7 | 0.00 | 0.00 | 0.00 | 40 | 961.5 |
| 20260504140841 | 16 | 215 | 1.6 | 4.8 | 0.00 | 0.00 | 0.00 | 47 | 961.9 |
| 20260504140335 | 16 | 190 | 1.6 | 6.4 | 0.00 | 0.00 | 0.00 | 48 | 961.9 |
| 20260504130729 | 13 | 230 | 1.6 | 4.8 | 0.00 | 0.00 | 0.00 | 53 | 962.4 |
| 20260504130224 | 13 | 196 | 3.2 | 8.0 | 0.00 | 0.00 | 0.00 | 54 | 962.4 |
| 20260504120111 | 8 | 193 | 0.0 | 0.0 | 0.00 | 0.00 | 0.00 | 74 | 962.7 |
| 20260504110505 | 3 | 250 | 0.0 | 0.0 | 0.00 | 0.00 | 0.00 | 77 | 962.6 |
| 20260504100422 | 1 | 250 | 0.0 | 0.0 | 0.00 | 0.00 | 0.00 | 79 | 962.8 |
| 20260504081903 | 1 | 250 | 0.0 | 0.0 | 0.00 | 0.00 | 0.00 | 81 | 963.1 |
| 20260504081358 | 1 | 250 | 0.0 | 0.0 | 0.00 | 0.00 | 0.00 | 81 | 963.1 |
| 20260504080858 | 1 | 250 | 0.0 | 0.0 | 0.00 | 0.00 | 0.00 | 81 | 963.1 |
| 20260504080356 | 1 | 250 | 0.0 | 0.0 | 0.00 | 0.00 | 0.00 | 81 | 963.1 |
| 20260504070353 | 1 | 250 | 0.0 | 0.0 | 0.00 | 0.00 | 0.00 | 82 | 963.2 |
| 20260504060109 | 2 | 250 | 0.0 | 1.6 | 0.00 | 0.00 | 0.00 | 82 | 963.1 |
| 20260504050747 | 2 | 229 | 0.0 | 0.0 | 0.00 | 0.00 | 0.00 | 81 | 963.3 |
| 20260504050241 | 2 | 229 | 0.0 | 0.0 | 0.00 | 0.00 | 0.00 | 81 | 963.3 |
| 20260504045735 | 3 | 229 | 0.0 | 0.0 | 0.00 | 0.00 | 0.00 | 81 | 963.4 |
| 20260504045230 | 3 | 229 | 0.0 | 0.0 | 0.00 | 0.00 | 0.00 | 81 | 963.4 |
| 20260504044723 | 3 | 229 | 0.0 | 0.0 | 0.00 | 0.00 | 0.00 | 81 | 963.4 |
| 20260504044217 | 3 | 229 | 0.0 | 0.0 | 0.00 | 0.00 | 0.00 | 81 | 963.5 |
| 20260504043711 | 3 | 229 | 0.0 | 0.0 | 0.00 | 0.00 | 0.00 | 81 | 963.4 |
| 20260504043205 | 3 | 229 | 0.0 | 0.0 | 0.00 | 0.00 | 0.00 | 81 | 963.4 |
| 20260504042659 | 3 | 229 | 0.0 | 0.0 | 0.00 | 0.00 | 0.00 | 81 | 963.4 |
| 20260504042153 | 3 | 229 | 0.0 | 0.0 | 0.00 | 0.00 | 0.00 | 80 | 963.4 |
| 20260504041648 | 3 | 229 | 0.0 | 0.0 | 0.00 | 0.00 | 0.00 | 80 | 963.4 |
| 20260504041141 | 3 | 229 | 0.0 | 0.0 | 0.00 | 0.00 | 0.00 | 79 | 963.4 |
| 20260504040635 | 3 | 229 | 0.0 | 0.0 | 0.00 | 0.00 | 0.00 | 79 | 963.4 |
| 20260504040351 | 3 | 229 | 0.0 | 0.0 | 0.00 | 0.00 | 0.00 | 79 | 963.4 |
| 20260504035623 | 3 | 229 | 0.0 | 0.0 | 0.00 | 0.00 | 0.00 | 78 | 963.4 |
| 20260504035118 | 4 | 229 | 0.0 | 0.0 | 0.00 | 0.00 | 0.00 | 78 | 963.4 |
| 20260504034612 | 4 | 229 | 0.0 | 0.0 | 0.00 | 0.00 | 0.00 | 78 | 963.3 |
| 20260504034326 | 4 | 229 | 0.0 | 0.0 | 0.00 | 0.00 | 0.00 | 78 | 963.3 |
| 20260504033600 | 4 | 229 | 0.0 | 0.0 | 0.00 | 0.00 | 0.00 | 78 | 963.2 |
| 20260504033053 | 5 | 229 | 0.0 | 0.0 | 0.00 | 0.00 | 0.00 | 77 | 963.2 |
| 20260504032548 | 5 | 229 | 0.0 | 0.0 | 0.00 | 0.00 | 0.00 | 77 | 963.1 |
| 20260504032312 | 5 | 229 | 0.0 | 0.0 | 0.00 | 0.00 | 0.00 | 76 | 963.1 |
| 20260504031536 | 5 | 229 | 0.0 | 0.0 | 0.00 | 0.00 | 0.00 | 75 | 963.1 |
| 20260504031257 | 5 | 229 | 0.0 | 0.0 | 0.00 | 0.00 | 0.00 | 74 | 963.1 |
| 20260504030752 | 5 | 229 | 0.0 | 0.0 | 0.00 | 0.00 | 0.00 | 75 | 963.1 |
| 20260504030017 | 5 | 229 | 0.0 | 0.0 | 0.00 | 0.00 | 0.00 | 74 | 963.0 |
| 20260504025511 | 5 | 229 | 0.0 | 0.0 | 0.00 | 0.00 | 0.00 | 74 | 963.0 |
| 20260504025005 | 5 | 229 | 0.0 | 0.0 | 0.00 | 0.00 | 0.00 | 74 | 963.0 |
| 20260504024459 | 5 | 229 | 0.0 | 0.0 | 0.00 | 0.00 | 0.00 | 74 | 963.1 |
| 20260504023955 | 5 | 229 | 0.0 | 0.0 | 0.00 | 0.00 | 0.00 | 73 | 963.1 |
| 20260504023447 | 5 | 229 | 0.0 | 0.0 | 0.00 | 0.00 | 0.00 | 73 | 963.1 |
| 20260504023209 | 6 | 229 | 0.0 | 0.0 | 0.00 | 0.00 | 0.00 | 73 | 963.0 |
| 20260504022701 | 6 | 229 | 0.0 | 1.6 | 0.00 | 0.00 | 0.00 | 73 | 963.0 |
| 20260504021929 | 6 | 229 | 0.0 | 1.6 | 0.00 | 0.00 | 0.00 | 73 | 962.9 |
| 20260504021423 | 6 | 224 | 0.0 | 0.0 | 0.00 | 0.00 | 0.00 | 71 | 962.9 |
| 20260504020917 | 6 | 229 | 0.0 | 0.0 | 0.00 | 0.00 | 0.00 | 70 | 962.9 |
| 20260504020412 | 6 | 229 | 0.0 | 0.0 | 0.00 | 0.00 | 0.00 | 70 | 962.9 |
| 20260504020123 | 6 | 229 | 0.0 | 0.0 | 0.00 | 0.00 | 0.00 | 70 | 962.9 |
| 20260504015629 | 7 | 229 | 0.0 | 0.0 | 0.00 | 0.00 | 0.00 | 69 | 962.8 |
| 20260504014853 | 7 | 229 | 0.0 | 0.0 | 0.00 | 0.00 | 0.00 | 68 | 962.8 |
| 20260504014348 | 7 | 229 | 0.0 | 0.0 | 0.00 | 0.00 | 0.00 | 68 | 962.8 |
| 20260504013841 | 7 | 229 | 0.0 | 0.0 | 0.00 | 0.00 | 0.00 | 67 | 962.8 |
| 20260504013335 | 7 | 229 | 0.0 | 0.0 | 0.00 | 0.00 | 0.00 | 66 | 962.8 |
| 20260504013311 | 8 | 229 | 0.0 | 0.0 | 0.00 | 0.00 | 0.00 | 64 | 962.8 |
| 20260504012323 | 8 | 229 | 0.0 | 0.0 | 0.00 | 0.00 | 0.00 | 63 | 962.7 |
| 20260504011817 | 8 | 229 | 0.0 | 0.0 | 0.00 | 0.00 | 0.00 | 63 | 962.6 |
| 20260504011312 | 8 | 229 | 0.0 | 0.0 | 0.00 | 0.00 | 0.00 | 63 | 962.6 |
| 20260504010805 | 8 | 229 | 0.0 | 0.0 | 0.00 | 0.00 | 0.00 | 62 | 962.6 |
| 20260504010259 | 9 | 229 | 0.0 | 0.0 | 0.00 | 0.00 | 0.00 | 58 | 962.5 |
| 20260504005753 | 9 | 231 | 0.0 | 0.0 | 0.00 | 0.00 | 0.00 | 55 | 962.5 |
| 20260504005247 | 10 | 231 | 0.0 | 0.0 | 0.00 | 0.00 | 0.00 | 55 | 962.4 |
| 20260504004742 | 10 | 231 | 0.0 | 0.0 | 0.00 | 0.00 | 0.00 | 54 | 962.3 |
| 20260504004241 | 11 | 231 | 0.0 | 0.0 | 0.00 | 0.00 | 0.00 | 52 | 962.3 |
| 20260504003743 | 11 | 231 | 0.0 | 0.0 | 0.00 | 0.00 | 0.00 | 51 | 962.3 |
| 20260504003243 | 11 | 231 | 0.0 | 0.0 | 0.00 | 0.00 | 0.00 | 51 | 962.3 |
| 20260504002743 | 12 | 231 | 0.0 | 0.0 | 0.00 | 0.00 | 0.00 | 45 | 962.2 |
| 20260504002243 | 12 | 231 | 0.0 | 0.0 | 0.00 | 0.00 | 0.00 | 44 | 962.2 |
| 20260504001743 | 13 | 231 | 0.0 | 1.6 | 0.00 | 0.00 | 0.00 | 42 | 962.1 |
| 20260504001504 | 13 | 231 | 0.0 | 1.6 | 0.00 | 0.00 | 0.00 | 41 | 962.1 |
| 20260504000742 | 13 | 231 | 0.0 | 1.6 | 0.00 | 0.00 | 0.00 | 40 | 962.1 |
| 20260504000244 | 13 | 248 | 0.0 | 3.2 | 0.00 | 0.00 | 0.00 | 40 | 962.1 |
| 20260503235739 | 14 | 237 | 1.6 | 4.8 | 0.00 | 0.00 | 0.00 | 39 | 962.1 |
| 20260503235239 | 14 | 274 | 1.6 | 9.7 | 0.00 | 0.00 | 0.00 | 38 | 962.0 |
| 20260503234739 | 14 | 248 | 3.2 | 9.7 | 0.00 | 0.00 | 0.00 | 38 | 961.9 |
| 20260503234506 | 14 | 196 | 1.6 | 9.7 | 0.00 | 0.00 | 0.00 | 37 | 961.8 |
| 20260503233738 | 14 | 233 | 0.0 | 4.8 | 0.00 | 0.00 | 0.00 | 37 | 961.8 |
| 20260503233500 | 15 | 255 | 1.6 | 6.4 | 0.00 | 0.00 | 0.00 | 36 | 961.7 |
| 20260503232742 | 15 | 231 | 3.2 | 9.7 | 0.00 | 0.00 | 0.00 | 36 | 961.7 |
| 20260503232243 | 15 | 212 | 3.2 | 11.3 | 0.00 | 0.00 | 0.00 | 35 | 961.7 |
| 20260503232227 | 15 | 218 | 1.6 | 11.3 | 0.00 | 0.00 | 0.00 | 35 | 961.7 |
| 20260503231239 | 15 | 218 | 3.2 | 11.3 | 0.00 | 0.00 | 0.00 | 35 | 961.7 |
| 20260503231001 | 15 | 72 | 3.2 | 14.5 | 0.00 | 0.00 | 0.00 | 35 | 961.7 |
| 20260503230237 | 15 | 241 | 3.2 | 14.5 | 0.00 | 0.00 | 0.00 | 34 | 961.7 |
| 20260503225735 | 16 | 245 | 4.8 | 14.5 | 0.00 | 0.00 | 0.00 | 34 | 961.7 |
| 20260503225503 | 16 | 240 | 4.8 | 14.5 | 0.00 | 0.00 | 0.00 | 33 | 961.7 |
| 20260503224733 | 16 | 226 | 4.8 | 16.1 | 0.00 | 0.00 | 0.00 | 33 | 961.7 |
| 20260503224233 | 16 | 181 | 4.8 | 16.1 | 0.00 | 0.00 | 0.00 | 33 | 961.7 |
| 20260503223735 | 16 | 203 | 3.2 | 11.3 | 0.00 | 0.00 | 0.00 | 33 | 961.6 |
| 20260503223236 | 16 | 248 | 3.2 | 16.1 | 0.00 | 0.00 | 0.00 | 32 | 961.6 |
| 20260503222733 | 16 | 255 | 4.8 | 17.7 | 0.00 | 0.00 | 0.00 | 33 | 961.7 |
| 20260503222235 | 16 | 152 | 3.2 | 17.7 | 0.00 | 0.00 | 0.00 | 33 | 961.7 |
| 20260503221735 | 17 | 194 | 1.6 | 9.7 | 0.00 | 0.00 | 0.00 | 33 | 961.7 |
| 20260503221234 | 16 | 245 | 3.2 | 14.5 | 0.00 | 0.00 | 0.00 | 33 | 961.7 |
| 20260503220958 | 16 | 239 | 3.2 | 14.5 | 0.00 | 0.00 | 0.00 | 33 | 961.7 |
| 20260503220233 | 16 | 172 | 4.8 | 14.5 | 0.00 | 0.00 | 0.00 | 33 | 961.7 |
| 20260503215735 | 16 | 240 | 4.8 | 12.9 | 0.00 | 0.00 | 0.00 | 34 | 961.8 |
| 20260503215234 | 16 | 231 | 4.8 | 12.9 | 0.00 | 0.00 | 0.00 | 34 | 961.8 |
| 20260503214735 | 16 | 214 | 6.4 | 17.7 | 0.00 | 0.00 | 0.00 | 33 | 961.7 |
| 20260503214228 | 17 | 243 | 4.8 | 17.7 | 0.00 | 0.00 | 0.00 | 32 | 961.8 |
| 20260503213723 | 17 | 236 | 3.2 | 11.3 | 0.00 | 0.00 | 0.00 | 32 | 961.8 |
| 20260503213443 | 16 | 101 | 4.8 | 11.3 | 0.00 | 0.00 | 0.00 | 35 | 961.7 |
| 20260503212709 | 16 | 226 | 4.8 | 16.1 | 0.00 | 0.00 | 0.00 | 34 | 961.6 |
| 20260503212205 | 16 | 132 | 6.4 | 22.5 | 0.00 | 0.00 | 0.00 | 34 | 961.7 |
| 20260503211658 | 16 | 246 | 6.4 | 22.5 | 0.00 | 0.00 | 0.00 | 33 | 961.7 |
| 20260503211158 | 16 | 176 | 3.2 | 20.9 | 0.00 | 0.00 | 0.00 | 35 | 961.6 |
| 20260503210655 | 16 | 217 | 3.2 | 11.3 | 0.00 | 0.00 | 0.00 | 36 | 961.7 |
| 20260503210155 | 16 | 270 | 3.2 | 11.3 | 0.00 | 0.00 | 0.00 | 35 | 961.6 |
| 20260503205654 | 16 | 253 | 3.2 | 14.5 | 0.00 | 0.00 | 0.00 | 34 | 961.7 |
| 20260503205154 | 16 | 70 | 4.8 | 14.5 | 0.00 | 0.00 | 0.00 | 34 | 961.7 |
| 20260503204654 | 16 | 215 | 6.4 | 14.5 | 0.00 | 0.00 | 0.00 | 34 | 961.8 |
| 20260503204154 | 16 | 264 | 4.8 | 17.7 | 0.00 | 0.00 | 0.00 | 35 | 961.8 |
| 20260503203652 | 16 | 159 | 3.2 | 17.7 | 0.00 | 0.00 | 0.00 | 33 | 961.7 |
| 20260503203154 | 16 | 254 | 3.2 | 16.1 | 0.00 | 0.00 | 0.00 | 34 | 961.7 |